[[{"header":{"parameterUnit":"m.s-1","parameterCategory":1,"la1":30.2991,"la2":30.254,"lo1":-89.0895,"lo2":-89.0444,"dy":0.0017,"dx":0.0017,"nx":28,"ny":28,"refTime":"2024-04-14T03:00:00:Z","depth":0,"parameterNumber":2,"parameterNumberName":"U-component_of_WINDS"},"data":[0,0,0,0,0,0,0,0,0,0,0,0,0,0,0,0,0,0,0,0,0,0,0,0,0,0,0,0,0,0,0,0,0,0,0,0,0,0,0,0,0,0,0,0,0,0,0,0,0,0,0,0,0,0,0,0,0,0,0.1042,0.1043,0,0.1113,0.1114,0.1115,0.1151,0.1151,0.1151,0.1151,0.1222,0.1224,0.1226,0,0,0,0,0,0,0,0,0,0,0,0,0,0.0935,0.0937,0.1042,0.1043,0.1044,0.1113,0.1114,0.1115,0.1151,0.1151,0.1151,0.1151,0.1222,0.1224,0.1226,0,0,0,0,0,0,0,0,0,0,0,0,0,0.0991,0.0937,0.1042,0.107,0.1073,0.1113,0.1114,0.1115,0.1151,0.1151,0.1151,0.1151,0.1221,0.1224,0.1226,0.1243,0,0,0.1235,0.1236,0,0,0,0,0,0,0,0,0.0988,0.0995,0.1065,0.1068,0.1072,0.1123,0.1103,0.1158,0.1151,0.1121,0.1151,0.1151,0.1189,0.1195,0.1208,0.1247,0.125,0.1235,0.1237,0.1238,0.1239,0,0,0,0,0,0,0,0.0984,0.0992,0.107,0.1066,0.107,0.1078,0.1086,0.1113,0.1154,0.1124,0.1127,0.1135,0.1191,0.1205,0.121,0.1251,0.1235,0.1238,0.1239,0.1241,0.1305,0.1305,0,0,0,0,0,0,0.0976,0.0989,0.1068,0.1072,0.1029,0.108,0.1089,0.1107,0.1154,0.1161,0.1134,0.1136,0.12,0.1206,0.1212,0.1235,0.1238,0.1241,0.1242,0.1305,0.1305,0.1305,0,0,0,0,0,0,0.0973,0.0983,0.1065,0.1031,0.1043,0.1082,0.1101,0.1108,0.1122,0.1162,0.1169,0.1141,0.12,0.1208,0.1235,0.1238,0.1242,0.1245,0.1305,0.1305,0.1305,0.1279,0,0,0,0,0,0,0.097,0.0982,0.0989,0.1031,0.1044,0.1087,0.1102,0.1109,0.1127,0.113,0.117,0.1177,0.1201,0.1231,0.1238,0.1242,0.1247,0.1305,0.1305,0.1305,0.128,0.1279,0.1277,0,0,0,0,0,0.0966,0.0979,0.0989,0.0999,0.1054,0.1087,0.1095,0.1122,0.1127,0.1134,0.116,0.1176,0.1236,0.1233,0.1242,0.1246,0.1305,0.1305,0.1305,0.1281,0.1279,0.1277,0,0,0,0,0,0,0.0936,0.0985,0.0997,0.1024,0.1051,0.1093,0.1104,0.1119,0.1146,0.1147,0.118,0.1188,0.1212,0.1232,0.1228,0.1264,0.1272,0.1274,0.1251,0.1249,0.1247,0.1242,0.1249,0,0,0,0,0,0.0932,0.0955,0.0997,0.1016,0.1029,0.1064,0.1079,0.1098,0.1128,0.1139,0.1167,0.1194,0.1219,0.1235,0.126,0.1283,0.1292,0.129,0.1288,0.1287,0.1288,0.1301,0.13,0.1306,0.1306,0.1306,0,0,0.0925,0.0954,0.0967,0.1011,0.1034,0.1057,0.1074,0.1097,0.1114,0.1143,0.117,0.119,0.1223,0.1248,0.126,0.1265,0.1288,0.1287,0.1286,0.1288,0.1301,0.13,0.1299,0.1306,0.1306,0.1306,0,0,0.0923,0.0948,0.0967,0.099,0.1025,0.1048,0.1052,0.1092,0.1107,0.1134,0.1156,0.1176,0.1219,0.1241,0.1258,0.1263,0.1278,0.127,0.1262,0.1274,0.1273,0.1273,0.1274,0.1274,0.1271,0.1271,0.1271,0,0.0909,0.0945,0.0974,0.0997,0.1015,0.1042,0.106,0.1081,0.1122,0.1134,0.1139,0.1192,0.1216,0.1246,0.1247,0.1259,0.1265,0.1266,0.1271,0.1271,0.1271,0.1273,0.1273,0.127,0.127,0.127,0.127,0,0.0927,0.0951,0.0962,0.1001,0.102,0.104,0.1072,0.1087,0.1104,0.1126,0.1152,0.1182,0.1213,0.1221,0.1238,0.1253,0.1255,0.1265,0.1274,0.1269,0.1271,0.1272,0.1268,0.1268,0.1269,0.1269,0,0,0.0909,0.0963,0.0967,0.0985,0.1025,0.1044,0.1064,0.1095,0.1108,0.1135,0.1153,0.1187,0.1196,0.1215,0.1234,0.1244,0.1246,0.1253,0.1255,0.1251,0.1263,0.1255,0.1256,0.1256,0.1256,0.1256,0.126,0,0.0913,0.0952,0.0979,0.1007,0.1029,0.1055,0.1072,0.1098,0.1119,0.114,0.1162,0.1186,0.1197,0.1208,0.1219,0.1243,0.1249,0.1243,0.1272,0.1273,0.1263,0.1257,0.1249,0.1252,0.1261,0.1261,0.1262,0,0.0923,0.095,0.0981,0.1018,0.1028,0.1044,0.1073,0.1093,0.1123,0.1137,0.1157,0.1176,0.1198,0.1204,0.1234,0.123,0.1243,0.1256,0.1257,0.1261,0.1267,0.1261,0.1253,0.1253,0.1263,0.1263,0.1263,0,0.0907,0.095,0.0974,0.0989,0.1033,0.1043,0.1061,0.1091,0.1107,0.1132,0.1143,0.1171,0.1186,0.1206,0.1231,0.1234,0.1258,0.1267,0.127,0.1269,0.1275,0.1274,0.1269,0.1283,0.1283,0.1283,0.1283,0,0.0909,0.0927,0.0968,0.0982,0.1003,0.1032,0.1051,0.1071,0.1097,0.1115,0.1138,0.1154,0.1187,0.1207,0.1227,0.1248,0.1255,0.1266,0.1271,0.1264,0.1263,0.1274,0.1274,0.1283,0.1283,0.1283,0.1283,0,0.0895,0.0923,0.0951,0.0989,0.0999,0.1012,0.1045,0.106,0.1081,0.1103,0.111,0.1143,0.1168,0.1195,0.1229,0.1242,0.1262,0.127,0.1253,0.1256,0.1257,0.1256,0.1259,0.1261,0.1273,0.1273,0.1273,0,0.0894,0.0909,0.0949,0.0963,0.0981,0.1003,0.102,0.1049,0.1065,0.1099,0.1109,0.1135,0.1158,0.1196,0.1223,0.1248,0.1256,0.1255,0.126,0.1252,0.1256,0.1255,0.1256,0.1254,0.1254,0.1254,0.1253,0,0.0891,0.0903,0.0927,0.0955,0.0975,0.0998,0.1022,0.1032,0.1065,0.1082,0.1108,0.1126,0.116,0.1185,0.1214,0.1232,0.1248,0.1251,0.1253,0.1247,0.1236,0.1241,0.1249,0.1251,0.1252,0.1252,0.1252,0.1252,0.0883,0.0897,0.0927,0.0952,0.0973,0.0995,0.1011,0.1033,0.1056,0.1086,0.1101,0.1126,0.1154,0.1194,0.1211,0.1231,0.1236,0.1239,0.1239,0.124,0.1238,0.1233,0.1236,0.1236,0.1236,0.1236,0.1236,0,0.0881,0.0901,0.0924,0.0957,0.0976,0.099,0.1017,0.1032,0.1054,0.1079,0.11,0.1129,0.1154,0.1181,0.1207,0.1218,0.1225,0.1223,0.1223,0.1227,0.1232,0.1227,0.1217,0.1217,0.1217,0.1217,0.1217,0.1217,0.0881,0.0905,0.0921,0.0955,0.0975,0.1,0.1014,0.1034,0.1054,0.1085,0.1106,0.1124,0.1149,0.1177,0.12,0.1207,0.1215,0.1211,0.1221,0.1225,0.1227,0.1228,0.1224,0.1213,0.1213,0.1214,0.1214,0.1214]},{"header":{"parameterUnit":"m.s-1","parameterCategory":1,"la1":30.2991,"la2":30.254,"lo1":-89.0895,"lo2":-89.0444,"dy":0.0017,"dx":0.0017,"nx":28,"ny":28,"refTime":"2024-04-14T03:00:00:Z","depth":0,"parameterNumber":3,"parameterNumberName":"V-component_of_WINDS"},"data":[0,0,0,0,0,0,0,0,0,0,0,0,0,0,0,0,0,0,0,0,0,0,0,0,0,0,0,0,0,0,0,0,0,0,0,0,0,0,0,0,0,0,0,0,0,0,0,0,0,0,0,0,0,0,0,0,0,0,4.1332,4.1331,0,4.1279,4.1279,4.1278,4.1267,4.1267,4.1268,4.1268,4.1208,4.1206,4.1204,0,0,0,0,0,0,0,0,0,0,0,0,0,4.1419,4.1417,4.1332,4.1331,4.1331,4.1279,4.1278,4.1278,4.1267,4.1267,4.1268,4.1268,4.1209,4.1206,4.1204,0,0,0,0,0,0,0,0,0,0,0,0,0,4.1375,4.1417,4.1332,4.1319,4.1317,4.1279,4.1278,4.1278,4.1267,4.1267,4.1268,4.1268,4.1209,4.1207,4.1204,4.1173,0,0,4.1195,4.1193,0,0,0,0,0,0,0,0,4.1377,4.1372,4.1322,4.132,4.1318,4.128,4.1287,4.1242,4.1266,4.1286,4.1268,4.1269,4.1231,4.1226,4.1215,4.117,4.1168,4.1194,4.1193,4.1191,4.119,0,0,0,0,0,0,0,4.138,4.1374,4.1311,4.1321,4.1319,4.1314,4.1309,4.1279,4.1255,4.1284,4.1283,4.1277,4.123,4.1218,4.1214,4.1167,4.1194,4.1192,4.119,4.1189,4.1095,4.1095,0,0,0,0,0,0,4.1387,4.1377,4.1313,4.1309,4.135,4.1312,4.1306,4.1292,4.1256,4.1251,4.1277,4.1277,4.1223,4.1217,4.1211,4.1174,4.1191,4.1188,4.1187,4.1096,4.1095,4.1094,0,0,0,0,0,0,4.1388,4.1381,4.1315,4.1343,4.1334,4.131,4.1294,4.129,4.1278,4.125,4.1246,4.1269,4.1223,4.1216,4.1183,4.1172,4.1187,4.1184,4.1097,4.1096,4.1095,4.1099,0,0,0,0,0,0,4.1391,4.1382,4.1371,4.1343,4.1333,4.1289,4.1293,4.1289,4.1274,4.1273,4.1242,4.1237,4.1223,4.1188,4.118,4.1168,4.1182,4.1098,4.1096,4.1095,4.11,4.1098,4.1097,0,0,0,0,0,4.1394,4.1373,4.137,4.1363,4.1319,4.1288,4.1282,4.1268,4.1273,4.1261,4.1244,4.1238,4.1174,4.1185,4.1176,4.1163,4.1098,4.1097,4.1095,4.11,4.1099,4.1097,0,0,0,0,0,0,4.1398,4.1369,4.1366,4.1335,4.1315,4.1287,4.1271,4.1267,4.1243,4.1243,4.1225,4.1218,4.1187,4.1171,4.1183,4.1132,4.1136,4.1133,4.1143,4.1141,4.114,4.1144,4.118,0,0,0,0,0,4.1395,4.1375,4.135,4.1325,4.1315,4.1295,4.1281,4.1272,4.125,4.124,4.122,4.1197,4.1172,4.1156,4.1131,4.1097,4.109,4.1084,4.1083,4.1082,4.1079,4.1061,4.1058,4.1089,4.1089,4.1089,0,0,4.1389,4.1371,4.1358,4.1325,4.1308,4.1286,4.1288,4.1264,4.1247,4.1236,4.1205,4.119,4.1163,4.113,4.1115,4.1116,4.1069,4.108,4.1079,4.1077,4.1059,4.1056,4.1054,4.1088,4.1088,4.1088,0,0,4.1367,4.1351,4.133,4.1313,4.1289,4.1276,4.1271,4.1244,4.1234,4.1204,4.1195,4.1174,4.1131,4.1112,4.1097,4.107,4.1064,4.1062,4.1055,4.1038,4.1035,4.1033,4.1024,4.1021,4.106,4.106,4.106,0,4.1362,4.1331,4.1318,4.1296,4.1281,4.1273,4.125,4.1234,4.1202,4.1192,4.1194,4.1141,4.1122,4.1086,4.108,4.1067,4.106,4.1066,4.1037,4.1034,4.1032,4.1023,4.102,4.106,4.106,4.106,4.106,0,4.1326,4.1304,4.1289,4.1262,4.1245,4.1223,4.1206,4.119,4.1183,4.117,4.1139,4.1116,4.1087,4.1078,4.1069,4.104,4.1042,4.1041,4.1045,4.103,4.1021,4.1017,4.106,4.106,4.106,4.106,0,0,4.1304,4.1272,4.1266,4.1254,4.1227,4.1209,4.1186,4.116,4.1148,4.1125,4.1105,4.107,4.107,4.1052,4.1042,4.1027,4.1008,4.1027,4.1026,4.1025,4.0975,4.0977,4.0973,4.1004,4.1003,4.1002,4.0978,0,4.128,4.1241,4.123,4.1196,4.1176,4.1168,4.1148,4.1128,4.1115,4.1095,4.108,4.1056,4.1056,4.1046,4.1031,4.1014,4.0998,4.1015,4.0984,4.0983,4.0992,4.0969,4.097,4.0948,4.0974,4.0974,4.0973,0,4.1246,4.1227,4.1192,4.1169,4.116,4.1143,4.1119,4.1099,4.1077,4.1069,4.1051,4.1042,4.1016,4.1022,4.0987,4.0999,4.0985,4.0975,4.0974,4.0971,4.0978,4.0965,4.094,4.0937,4.0968,4.0968,4.0969,0,4.1235,4.12,4.1175,4.1164,4.1137,4.1125,4.1112,4.1091,4.1076,4.1054,4.1045,4.102,4.1006,4.0986,4.097,4.0976,4.0936,4.094,4.0928,4.0928,4.092,4.0921,4.0893,4.0911,4.0911,4.0911,4.0911,0,4.1209,4.1188,4.117,4.1155,4.1131,4.1118,4.1094,4.1081,4.1062,4.1043,4.1034,4.1016,4.0996,4.0975,4.0962,4.0935,4.0928,4.092,4.0917,4.0922,4.0923,4.0913,4.0914,4.091,4.091,4.091,4.091,0,4.1193,4.118,4.1152,4.1129,4.1123,4.1107,4.1086,4.107,4.1058,4.1034,4.1027,4.1006,4.0982,4.0964,4.0931,4.0923,4.0894,4.089,4.0902,4.0901,4.089,4.0892,4.0855,4.085,4.087,4.087,4.087,0,4.1178,4.1162,4.1138,4.1126,4.1115,4.1094,4.1081,4.1067,4.1052,4.1027,4.1014,4.0989,4.0968,4.0929,4.091,4.0885,4.0881,4.087,4.0877,4.0882,4.0882,4.0883,4.0882,4.0869,4.0869,4.0869,4.0869,0,4.1152,4.1147,4.1129,4.1108,4.1092,4.1075,4.1057,4.1047,4.103,4.1014,4.099,4.0974,4.0942,4.0917,4.0891,4.0876,4.0869,4.0867,4.0863,4.0867,4.0875,4.0872,4.09,4.0868,4.0868,4.0868,4.0868,4.0868,4.1136,4.1123,4.1105,4.1084,4.107,4.1054,4.1039,4.1025,4.1006,4.098,4.0973,4.0948,4.0926,4.089,4.0875,4.0855,4.0855,4.0849,4.0848,4.0847,4.0847,4.0878,4.085,4.085,4.085,4.085,4.085,0,4.1111,4.11,4.1082,4.1059,4.1043,4.104,4.102,4.1007,4.0986,4.0967,4.0948,4.092,4.0897,4.0877,4.0852,4.0839,4.0836,4.0833,4.0834,4.0831,4.0848,4.0854,4.0837,4.0837,4.0837,4.0837,4.0837,4.0837,4.1097,4.1074,4.1067,4.1036,4.1024,4.1002,4.0991,4.0976,4.0961,4.0932,4.0913,4.0901,4.0882,4.0856,4.0834,4.0828,4.082,4.0818,4.0812,4.0828,4.083,4.0831,4.0837,4.0816,4.0816,4.0797,4.0797,4.0797]}]]